This demonstration page uses our WeatherBlox Daily Observations layout. Learn more.

Left ArrowRight Arrow

Hourly Observations for August 20, 2020

Temp ( °F °C ) Dew Point ( °F °C ) Humidity (%) Winds ( mph kmh ) Pressure ( in mb ) Visibility ( mi km ) Precip ( " mm )
12:15 am 00:15 Clear 66 18.9 59 15.2 79 79 S 7 11 29.91 1013 10 16.0934 0 0
12:35 am 00:35 Clear 66 19 59 15.2 79 79 S 7 11 29.91 1013 10 16.0934 0 0
12:55 am 00:55 Clear 66 18.8 59 15.2 80 80 S 7 11 29.91 1013 10 16.0934 0 0
1:15 am 01:15 Clear 66 18.7 59 15.2 80 80 S 6 9 29.91 1013 10 16.0934 0 0
1:35 am 01:35 Clear 65 18.5 59 15.2 81 81 S 6 9 29.91 1013 10 16.0934 0 0
1:55 am 01:55 Clear 66 18.8 59 15.1 79 79 S 7 11 29.92 1013 10 16.0934 0 0
2:15 am 02:15 Clear 65 18.6 59 15.1 80 80 S 8 13 29.91 1013 10 16.0934 0 0
2:35 am 02:35 Clear 66 18.7 59 15 79 79 S 8 13 29.91 1013 10 16.0934 0 0
2:55 am 02:55 Clear 66 19 59 15 78 78 S 8 13 29.91 1013 10 16.0934 0 0
3:15 am 03:15 Clear 65 18.5 59 15 80 80 S 7 11 29.89 1012 10 16.0934 0 0
3:35 am 03:35 Clear 65 18.2 59 15 82 82 S 6 9 29.88 1012 10 16.0934 0 0
3:55 am 03:55 Clear 64 18 59 15 83 83 S 7 11 29.88 1012 10 16.0934 0 0
4:15 am 04:15 Clear 64 17.6 59 15 85 85 S 7 11 29.89 1012 10 16.0934 0 0
4:35 am 04:35 Clear 64 17.5 59 15 85 85 S 6 9 29.89 1012 10 16.0934 0 0
4:55 am 04:55 Clear 63 17.2 59 14.8 86 86 S 6 9 29.89 1012 10 16.0934 0 0
5:15 am 05:15 Clear 63 17.2 59 14.8 86 86 S 6 9 29.89 1012 10 16.0934 0 0
5:35 am 05:35 Clear 63 17 59 14.9 88 88 S 6 9 29.89 1012 10 16.0934 0 0
5:55 am 05:55 Clear 63 17.1 58 14.7 86 86 S 6 9 29.89 1012 10 16.0934 0 0
6:15 am 06:15 Clear 62 16.7 58 14.7 88 88 S 6 9 29.89 1012 10 16.0934 0 0
6:35 am 06:35 Clear 62 16.7 58 14.7 88 88 S 6 9 29.9 1013 10 16.0934 0 0
6:55 am 06:55 Sunny 63 17 58 14.7 86 86 S 8 13 29.91 1013 10 16.0934 0 0
7:15 am 07:15 Sunny 63 17.2 58 14.7 85 85 S 9 15 29.91 1013 10 16.0934 0 0
7:35 am 07:35 Sunny 64 17.5 58 14.7 84 84 S 8 13 29.91 1013 10 16.0934 0 0
7:55 am 07:55 Sunny 65 18.1 59 14.9 82 82 S 9 15 29.9 1013 10 16.0934 0 0
8:15 am 08:15 Sunny 66 18.7 59 15 79 79 S 8 13 29.9 1012 10 16.0934 0 0
8:35 am 08:35 Sunny 67 19.6 59 15 75 75 S 10 17 29.89 1012 10 16.0934 0 0
8:55 am 08:55 Sunny 69 20.4 59 15.2 72 72 S 9 15 29.89 1012 10 16.0934 0 0
9:15 am 09:15 Sunny 71 21.6 59 15 66 66 SSW 10 17 29.87 1012 10 16.0934 0 0
9:35 am 09:35 Sunny 73 22.5 59 15.1 63 63 SSW 15 24 29.87 1011 10 16.0934 0 0
9:55 am 09:55 Sunny 74 23.5 60 15.4 61 61 S 13 20 29.85 1011 10 16.0934 0 0
10:15 am 10:15 Sunny 75 23.9 59 15.2 58 58 SSW 15 24 29.84 1010 10 16.0934 0 0
10:35 am 10:35 Sunny 77 25 60 15.3 55 55 SSW 12 19 29.84 1010 10 16.0934 0 0
10:55 am 10:55 Sunny 78 25.7 59 14.8 51 51 SSW 15 24 29.82 1010 10 16.0934 0 0
11:15 am 11:15 Sunny 80 26.7 59 14.8 48 48 SSW 15 24 29.81 1010 10 16.0934 0 0
11:35 am 11:35 Sunny 81 27.1 59 15.2 48 48 SSW 14 22 29.81 1009 10 16.0934 0 0
11:55 am 11:55 Sunny 83 28.2 60 15.3 45 45 SSW 14 22 29.79 1009 10 16.0934 0 0
12:15 pm 12:15 Sunny 84 28.7 59 15.2 44 44 SSW 10 17 29.78 1008 10 16.0934 0 0
12:35 pm 12:35 Sunny 84 28.9 60 15.3 44 44 S 13 20 29.76 1008 10 16.0934 0 0
12:55 pm 12:55 Sunny 85 29.6 60 15.5 42 42 S 13 20 29.76 1008 10 16.0934 0 0
1:15 pm 13:15 Sunny 86 30.1 60 15.8 42 42 S 10 17 29.75 1007 10 16.0934 0 0
1:35 pm 13:35 Sunny 87 30.5 60 15.7 41 41 S 12 19 29.73 1007 10 16.0934 0 0
1:55 pm 13:55 Sunny 87 30.5 60 15.4 40 40 S 10 17 29.73 1007 10 16.0934 0 0
2:15 pm 14:15 Sunny 88 31.2 61 16 40 40 S 10 17 29.73 1007 10 16.0934 0 0
2:35 pm 14:35 Sunny 88 31 60 15.4 39 39 S 12 19 29.71 1006 10 16.0934 0 0
2:55 pm 14:55 Sunny 88 31.2 61 16 40 40 S 12 19 29.71 1006 10 16.0934 0 0
3:15 pm 15:15 Sunny 89 31.5 60 15.8 39 39 S 10 17 29.71 1006 10 16.0934 0 0
3:35 pm 15:35 Sunny 90 32.4 60 15.5 36 36 S 12 19 29.7 1006 10 16.0934 0 0
3:55 pm 15:55 Sunny 90 32.4 60 15.5 36 36 S 12 19 29.68 1005 10 16.0934 0 0
4:15 pm 16:15 Sunny 91 32.7 59 15.2 35 35 S 13 20 29.69 1005 10 16.0934 0 0
4:35 pm 16:35 Sunny 91 33 60 15.3 34 34 S 10 17 29.68 1005 10 16.0934 0 0
4:55 pm 16:55 Sunny 89 31.8 58 14.5 35 35 S 9 15 29.66 1005 10 16.0934 0 0
5:15 pm 17:15 Sunny 87 30.7 59 14.9 38 38 S 9 15 29.67 1005 10 16.0934 0 0
5:35 pm 17:35 Sunny 85 29.6 61 16.2 44 44 S 5 7 29.68 1005 10 16.0934 0 0
5:55 pm 17:55 Partly Cloudy 84 29.1 62 16.8 47 47 SSE 6 9 29.69 1005 10 16.0934 0 0
6:15 pm 18:15 Sunny 83 28.6 64 17.7 52 52 SSE 5 7 29.68 1005 10 16.0934 0 0
6:35 pm 18:35 Sunny 82 27.9 65 18.1 55 55 S 5 7 29.69 1006 10 16.0934 0 0
6:55 pm 18:55 Sunny 81 27.4 64 18 57 57 Calm 29.7 1006 10 16.0934 0 0
7:15 pm 19:15 Sunny 81 27.2 65 18.5 59 59 SE 6 9 29.7 1006 10 16.0934 0 0
7:35 pm 19:35 Sunny 80 26.7 65 18.3 60 60 ESE 7 11 29.7 1006 10 16.0934 0 0
7:55 pm 19:55 Sunny 79 26.2 65 18.3 62 62 ESE 8 13 29.71 1006 10 16.0934 0 0
8:15 pm 20:15 Sunny 78 25.7 65 18.3 64 64 SE 7 11 29.71 1006 10 16.0934 0 0
8:35 pm 20:35 Clear 77 25 65 18.1 66 66 SE 5 7 29.72 1006 10 16.0934 0 0
8:55 pm 20:55 Clear 76 24.6 64 17.9 66 66 SE 7 11 29.73 1007 10 16.0934 0 0
9:15 pm 21:15 Clear 77 24.8 63 17.2 63 63 SE 8 13 29.73 1007 10 16.0934 0 0
9:35 pm 21:35 Clear 76 24.6 63 17.1 63 63 SSE 8 13 29.74 1007 10 16.0934 0 0
9:55 pm 21:55 Clear 76 24.5 63 17 63 63 SSE 8 13 29.74 1007 10 16.0934 0 0
10:15 pm 22:15 Clear 76 24.5 62 16.7 62 62 SSE 8 13 29.74 1007 10 16.0934 0 0
10:35 pm 22:35 Clear 75 24 62 16.6 63 63 SSE 8 13 29.75 1007 10 16.0934 0 0
10:55 pm 22:55 Clear 74 23.3 62 16.6 66 66 SSE 7 11 29.75 1007 10 16.0934 0 0
11:15 pm 23:15 Clear 74 23.5 62 16.5 65 65 SSE 6 9 29.76 1008 10 16.0934 0 0
11:35 pm 23:35 Clear 74 23.4 61 16.3 64 64 S 6 9 29.76 1008 10 16.0934 0 0
11:55 pm 23:55 Clear 73 22.8 62 16.5 68 68 S 7 11 29.75 1008 10 16.0934 0 0

Powered by AerisWeather